Location: Sungai Apap
(2.6167°N, 113.3833°E)
Time: 13:41:11
(UTC+00:00)

GPS 2-15 Rocket1 - Pass Details

Date: 25 May 2024
Orbit: 616 x 664 km, 19.8° (Epoch: 14 June)

Event Time Altitude Azimuth Distance (km) Brightness Sun altitude
Exits shadow 21:20:49 21° 249° (WSW) 1,374 4.2 -13.6°
Maximum altitude 21:23:51 90° 154° (SSE) 613 3.0 -12.9°
Drops below altitude 10° 21:28:28 10° 69° (ENE) 1,963 7.2 -11.8°
Sets 21:30:49 0° 69° (ENE) 2,872 8.7 -11.3°
